| time (UTC) | temp C | wind direction | speed KPH | gust KPH | rain 1hr cm | rain 24hr cm | rain mn cm | humidity % | barometer mb |
| 20260831001527 | 23 | 0.0 | 0.0 | 0.00 | 0.00 | 0.00 | 88 | 1017.2 | |
| 20260831000547 | 23 | 0.0 | 0.0 | 0.00 | 0.00 | 0.00 | 86 | 1017.1 | |
| 20260830235527 | 23 | 0.0 | 0.0 | 0.00 | 0.00 | 0.00 | 85 | 1017.2 | |
| 20260830234528 | 24 | 0.0 | 0.0 | 0.00 | 0.00 | 0.00 | 82 | 1017.2 | |
| 20260830233528 | 25 | 0.0 | 0.0 | 0.00 | 0.00 | 0.00 | 79 | 1017.5 | |
| 20260830232527 | 26 | 0.0 | 0.0 | 0.00 | 0.00 | 0.00 | 76 | 1017.8 | |
| 20260830231527 | 27 | 0.0 | 0.0 | 0.00 | 0.00 | 0.00 | 73 | 1017.9 | |
| 20260830230532 | 27 | 0.0 | 0.0 | 0.00 | 0.00 | 0.00 | 75 | 1017.9 | |
| 20260830225526 | 27 | 0.0 | 0.0 | 0.00 | 0.00 | 0.00 | 76 | 1017.7 | |
| 20260830224527 | 28 | 0.0 | 0.0 | 0.00 | 0.00 | 0.00 | 75 | 1017.4 | |
| 20260830223527 | 28 | 0.0 | 0.0 | 0.00 | 0.00 | 0.00 | 74 | 1017.3 | |
| 20260830222527 | 28 | 0.0 | 0.0 | 0.00 | 0.00 | 0.00 | 74 | 1017.0 | |
| 20260830221527 | 28 | 0.0 | 0.0 | 0.00 | 0.00 | 0.00 | 73 | 1017.0 | |
| 20260830220528 | 28 | 0.0 | 0.0 | 0.00 | 0.00 | 0.00 | 71 | 1017.1 | |
| 20260830215527 | 29 | 0.0 | 0.0 | 0.00 | 0.00 | 0.00 | 70 | 1017.1 | |
| 20260830214527 | 30 | 0.0 | 0.0 | 0.00 | 0.00 | 0.00 | 70 | 1017.0 | |
| 20260830213527 | 30 | 0.0 | 0.0 | 0.00 | 0.00 | 0.00 | 67 | 1017.1 | |
| 20260830212527 | 30 | 0.0 | 0.0 | 0.00 | 0.00 | 0.00 | 67 | 1017.0 | |
| 20260830211527 | 30 | 0.0 | 0.0 | 0.00 | 0.00 | 0.00 | 69 | 1017.0 | |
| 20260830210547 | 30 | 0.0 | 0.0 | 0.00 | 0.00 | 0.00 | 67 | 1016.9 | |
| 20260830205527 | 30 | 0.0 | 0.0 | 0.00 | 0.00 | 0.00 | 67 | 1016.9 | |
| 20260830204530 | 30 | 0.0 | 0.0 | 0.00 | 0.00 | 0.00 | 68 | 1016.9 | |
| 20260830203527 | 31 | 0.0 | 0.0 | 0.00 | 0.00 | 0.00 | 65 | 1016.9 | |
| 20260830202546 | 31 | 0.0 | 0.0 | 0.00 | 0.00 | 0.00 | 66 | 1017.0 | |
| 20260830201529 | 31 | 0.0 | 0.0 | 0.00 | 0.00 | 0.00 | 67 | 1017.1 | |
| 20260830200527 | 31 | 0.0 | 0.0 | 0.00 | 0.00 | 0.00 | 65 | 1017.2 | |
| 20260830195549 | 31 | 0.0 | 0.0 | 0.00 | 0.00 | 0.00 | 64 | 1017.3 | |
| 20260830194528 | 31 | 0.0 | 0.0 | 0.00 | 0.00 | 0.00 | 66 | 1017.4 | |
| 20260830193549 | 31 | 0.0 | 0.0 | 0.00 | 0.00 | 0.00 | 66 | 1017.4 | |
| 20260830192530 | 31 | 0.0 | 0.0 | 0.00 | 0.00 | 0.00 | 66 | 1017.5 | |
| 20260830191528 | 31 | 0.0 | 0.0 | 0.00 | 0.00 | 0.00 | 65 | 1017.7 | |
| 20260830190527 | 31 | 0.0 | 0.0 | 0.00 | 0.00 | 0.00 | 63 | 1018.2 | |
| 20260830184529 | 31 | 0.0 | 0.0 | 0.00 | 0.00 | 0.00 | 65 | 1018.7 | |
| 20260830183528 | 31 | 0.0 | 0.0 | 0.00 | 0.00 | 0.00 | 64 | 1018.8 | |
| 20260830182529 | 31 | 0.0 | 0.0 | 0.00 | 0.00 | 0.00 | 65 | 1019.0 | |
| 20260830181528 | 31 | 0.0 | 0.0 | 0.00 | 0.00 | 0.00 | 68 | 1019.0 | |
| 20260830180528 | 30 | 0.0 | 0.0 | 0.00 | 0.00 | 0.00 | 68 | 1019.2 | |
| 20260830175528 | 30 | 0.0 | 0.0 | 0.00 | 0.00 | 0.00 | 68 | 1019.4 | |
| 20260830174531 | 31 | 0.0 | 0.0 | 0.00 | 0.00 | 0.00 | 67 | 1019.6 | |
| 20260830173549 | 30 | 0.0 | 0.0 | 0.00 | 0.00 | 0.00 | 67 | 1019.7 | |
| 20260830172528 | 30 | 0.0 | 0.0 | 0.00 | 0.00 | 0.00 | 67 | 1019.8 | |
| 20260830171528 | 30 | 0.0 | 0.0 | 0.00 | 0.00 | 0.00 | 67 | 1020.0 | |
| 20260830170528 | 30 | 0.0 | 0.0 | 0.00 | 0.00 | 0.00 | 70 | 1020.1 | |
| 20260830165548 | 30 | 0.0 | 0.0 | 0.00 | 0.00 | 0.00 | 70 | 1020.3 | |
| 20260830164528 | 30 | 0.0 | 0.0 | 0.00 | 0.00 | 0.00 | 71 | 1020.3 | |
| 20260830163528 | 28 | 0.0 | 0.0 | 0.00 | 0.00 | 0.00 | 72 | 1020.4 | |
| 20260830162528 | 28 | 0.0 | 0.0 | 0.00 | 0.00 | 0.00 | 71 | 1020.6 | |
| 20260830161528 | 28 | 0.0 | 0.0 | 0.00 | 0.00 | 0.00 | 72 | 1020.7 | |
| 20260830160527 | 28 | 0.0 | 0.0 | 0.00 | 0.00 | 0.00 | 74 | 1020.6 | |
| 20260830155528 | 29 | 0.0 | 0.0 | 0.00 | 0.00 | 0.00 | 73 | 1020.8 | |
| 20260830154528 | 29 | 0.0 | 0.0 | 0.00 | 0.00 | 0.00 | 70 | 1020.7 | |
| 20260830153529 | 29 | 0.0 | 0.0 | 0.00 | 0.00 | 0.00 | 74 | 1020.8 | |
| 20260830152528 | 28 | 0.0 | 0.0 | 0.00 | 0.00 | 0.00 | 74 | 1020.9 | |
| 20260830151548 | 28 | 0.0 | 0.0 | 0.00 | 0.00 | 0.00 | 73 | 1020.9 | |
| 20260830150529 | 28 | 0.0 | 0.0 | 0.00 | 0.00 | 0.00 | 77 | 1020.8 | |
| 20260830145528 | 27 | 0.0 | 0.0 | 0.00 | 0.00 | 0.00 | 78 | 1020.8 | |
| 20260830144528 | 27 | 0.0 | 0.0 | 0.00 | 0.00 | 0.00 | 80 | 1020.7 | |
| 20260830143528 | 26 | 0.0 | 0.0 | 0.00 | 0.00 | 0.00 | 82 | 1020.8 | |
| 20260830142529 | 26 | 0.0 | 0.0 | 0.00 | 0.00 | 0.00 | 85 | 1020.8 | |
| 20260830141528 | 25 | 0.0 | 0.0 | 0.00 | 0.00 | 0.00 | 87 | 1021.0 | |
| 20260830140528 | 25 | 0.0 | 0.0 | 0.00 | 0.00 | 0.00 | 86 | 1021.0 | |
| 20260830135529 | 25 | 0.0 | 0.0 | 0.00 | 0.00 | 0.00 | 86 | 1021.0 | |
| 20260830134529 | 25 | 0.0 | 0.0 | 0.00 | 0.00 | 0.00 | 88 | 1021.0 | |
| 20260830133529 | 24 | 0.0 | 0.0 | 0.00 | 0.00 | 0.00 | 91 | 1021.1 | |
| 20260830132528 | 23 | 0.0 | 0.0 | 0.00 | 0.00 | 0.00 | 92 | 1021.2 | |
| 20260830131528 | 22 | 0.0 | 0.0 | 0.00 | 0.00 | 0.00 | 90 | 1021.2 | |
| 20260830130608 | 22 | 0.0 | 0.0 | 0.00 | 0.00 | 0.00 | 86 | 1021.5 | |
| 20260830125528 | 22 | 0.0 | 0.0 | 0.00 | 0.00 | 0.00 | 81 | 1021.5 | |
| 20260830124529 | 21 | 0.0 | 0.0 | 0.00 | 0.00 | 0.00 | 74 | 1021.6 | |
| 20260830123609 | 21 | 0.0 | 0.0 | 0.00 | 0.00 | 0.00 | 68 | 1021.5 | |
| 20260830122528 | 21 | 0.0 | 0.0 | 0.00 | 0.00 | 0.00 | 67 | 1021.7 | |
| 20260830121528 | 21 | 0.0 | 0.0 | 0.00 | 0.00 | 0.00 | 64 | 1021.7 | |
| 20260830120528 | 21 | 0.0 | 0.0 | 0.00 | 0.00 | 0.00 | 62 | 1021.7 | |
| 20260830115528 | 21 | 0.0 | 0.0 | 0.00 | 0.00 | 0.00 | 59 | 1021.8 | |
| 20260830114528 | 21 | 0.0 | 0.0 | 0.00 | 0.00 | 0.00 | 59 | 1021.8 | |
| 20260830113519 | -17 | 0.0 | 0.0 | 0.00 | 0.00 | 0.00 | |||
| 20260830113115 | -17 | 0.0 | 0.0 | 0.00 | 0.00 | 0.00 | |||
| 20260830112546 | -17 | 0.0 | 0.0 | 0.00 | 0.00 | 0.00 | |||
| 20260830111526 | -17 | 0.0 | 0.0 | 0.00 | 0.00 | 0.00 | |||
| 20260830111041 | -17 | 0.0 | 0.0 | 0.00 | 0.00 | 0.00 | |||
| 20260830110618 | -17 | 0.0 | 0.0 | 0.00 | 0.00 | 0.00 | |||
| 20260830110026 | -17 | 0.0 | 0.0 | 0.00 | 0.00 | 0.00 | |||
| 20260830105026 | -17 | 0.0 | 0.0 | 0.00 | 0.00 | 0.00 | |||
| 20260830104519 | -17 | 0.0 | 0.0 | 0.00 | 0.00 | 0.00 | |||
| 20260830104115 | -17 | 0.0 | 0.0 | 0.00 | 0.00 | 0.00 | |||
| 20260830103525 | -17 | 0.0 | 0.0 | 0.00 | 0.00 | 0.00 | |||
| 20260830102526 | -17 | 0.0 | 0.0 | 0.00 | 0.00 | 0.00 | |||
| 20260830102048 | -17 | 0.0 | 0.0 | 0.00 | 0.00 | 0.00 | |||
| 20260830101523 | -17 | 0.0 | 0.0 | 0.00 | 0.00 | 0.00 | |||
| 20260830101027 | -17 | 0.0 | 0.0 | 0.00 | 0.00 | 0.00 | |||
| 20260830100026 | -17 | 0.0 | 0.0 | 0.00 | 0.00 | 0.00 | |||
| 20260830095545 | -17 | 0.0 | 0.0 | 0.00 | 0.00 | 0.00 | |||
| 20260830095101 | -17 | 0.0 | 0.0 | 0.00 | 0.00 | 0.00 | |||
| 20260830094526 | -17 | 0.0 | 0.0 | 0.00 | 0.00 | 0.00 | |||
| 20260830093526 | -17 | 0.0 | 0.0 | 0.00 | 0.00 | 0.00 | |||
| 20260830093109 | -17 | 0.0 | 0.0 | 0.00 | 0.00 | 0.00 | |||
| 20260830092604 | -17 | 0.0 | 0.0 | 0.00 | 0.00 | 0.00 | |||
| 20260830092026 | -17 | 0.0 | 0.0 | 0.00 | 0.00 | 0.00 | |||
| 20260830091026 | -17 | 0.0 | 0.0 | 0.00 | 0.00 | 0.00 | |||
| 20260830090606 | -17 | 0.0 | 0.0 | 0.00 | 0.00 | 0.00 | |||
| 20260830090041 | -17 | 0.0 | 0.0 | 0.00 | 0.00 | 0.00 | |||
| 20260830085526 | -17 | 0.0 | 0.0 | 0.00 | 0.00 | 0.00 | |||
| 20260830084545 | -17 | 0.0 | 0.0 | 0.00 | 0.00 | 0.00 | |||
| 20260830084026 | -17 | 0.0 | 0.0 | 0.00 | 0.00 | 0.00 | |||
| 20260830083626 | -17 | 0.0 | 0.0 | 0.00 | 0.00 | 0.00 | |||
| 20260830083026 | -17 | 0.0 | 0.0 | 0.00 | 0.00 | 0.00 | |||
| 20260830082026 | -17 | 0.0 | 0.0 | 0.00 | 0.00 | 0.00 | |||
| 20260830081531 | -17 | 0.0 | 0.0 | 0.00 | 0.00 | 0.00 | |||
| 20260830081007 | -17 | 0.0 | 0.0 | 0.00 | 0.00 | 0.00 | |||
| 20260830080527 | -17 | 0.0 | 0.0 | 0.00 | 0.00 | 0.00 | |||
| 20260830075526 | -17 | 0.0 | 0.0 | 0.00 | 0.00 | 0.00 | |||
| 20260830075034 | -17 | 0.0 | 0.0 | 0.00 | 0.00 | 0.00 | |||
| 20260830074510 | -17 | 0.0 | 0.0 | 0.00 | 0.00 | 0.00 | |||
| 20260830074046 | -17 | 0.0 | 0.0 | 0.00 | 0.00 | 0.00 | |||
| 20260830073026 | -17 | 0.0 | 0.0 | 0.00 | 0.00 | 0.00 | |||
| 20260830072533 | -17 | 0.0 | 0.0 | 0.00 | 0.00 | 0.00 | |||
| 20260830072009 | -17 | 0.0 | 0.0 | 0.00 | 0.00 | 0.00 | |||
| 20260830071526 | -17 | 0.0 | 0.0 | 0.00 | 0.00 | 0.00 | |||
| 20260830070526 | -17 | 0.0 | 0.0 | 0.00 | 0.00 | 0.00 | |||
| 20260830070034 | -17 | 0.0 | 0.0 | 0.00 | 0.00 | 0.00 | 80 | ||
| 20260830065630 | 18 | 0.0 | 0.0 | 0.00 | 0.00 | 0.00 | 80 | 1021.4 | |
| 20260830065027 | 18 | 0.0 | 0.0 | 0.00 | 0.00 | 0.00 | 80 | 1021.3 | |
| 20260830064027 | 18 | 0.0 | 0.0 | 0.00 | 0.00 | 0.00 | 83 | 1021.5 | |
| 20260830063027 | 18 | 0.0 | 0.0 | 0.00 | 0.00 | 0.00 | 82 | 1021.6 | |
| 20260830062048 | 18 | 0.0 | 0.0 | 0.00 | 0.00 | 0.00 | 83 | 1021.6 | |
| 20260830061049 | 18 | 0.0 | 0.0 | 0.00 | 0.00 | 0.00 | 85 | 1021.6 | |
| 20260830060027 | 18 | 0.0 | 0.0 | 0.00 | 0.00 | 0.00 | 86 | 1021.6 | |
| 20260830055027 | 18 | 0.0 | 0.0 | 0.00 | 0.00 | 0.00 | 88 | 1021.7 | |
| 20260830054027 | 18 | 0.0 | 0.0 | 0.00 | 0.00 | 0.00 | 88 | 1021.8 | |
| 20260830053027 | 18 | 0.0 | 0.0 | 0.00 | 0.00 | 0.00 | 90 | 1021.8 | |
| 20260830052027 | 18 | 0.0 | 0.0 | 0.00 | 0.00 | 0.00 | 90 | 1021.8 | |
| 20260830051027 | 18 | 0.0 | 0.0 | 0.00 | 0.00 | 0.00 | 92 | 1021.8 | |
| 20260830050027 | 18 | 0.0 | 0.0 | 0.00 | 0.00 | 0.00 | 92 | 1021.7 | |
| 20260830045107 | 18 | 0.0 | 0.0 | 0.00 | 0.00 | 0.00 | 92 | 1021.8 | |
| 20260830044027 | 18 | 0.0 | 0.0 | 0.00 | 0.00 | 0.00 | 92 | 1021.9 | |
| 20260830043047 | 18 | 0.0 | 0.0 | 0.00 | 0.00 | 0.00 | 92 | 1021.9 | |
| 20260830042027 | 18 | 0.0 | 0.0 | 0.00 | 0.00 | 0.00 | 92 | 1021.8 | |
| 20260830041027 | 18 | 0.0 | 0.0 | 0.00 | 0.00 | 0.00 | 93 | 1021.8 | |
| 20260830040027 | 18 | 0.0 | 0.0 | 0.00 | 0.00 | 0.00 | 93 | 1021.6 | |
| 20260830035027 | 18 | 0.0 | 0.0 | 0.00 | 0.00 | 0.00 | 93 | 1021.6 | |
| 20260830034027 | 18 | 0.0 | 0.0 | 0.00 | 0.00 | 0.00 | 93 | 1021.5 | |
| 20260830033026 | 19 | 0.0 | 0.0 | 0.00 | 0.00 | 0.00 | 92 | 1021.4 | |
| 20260830032048 | 19 | 0.0 | 0.0 | 0.00 | 0.00 | 0.00 | 92 | 1021.3 | |
| 20260830031027 | 19 | 0.0 | 0.0 | 0.00 | 0.00 | 0.00 | 92 | 1021.4 | |
| 20260830030027 | 19 | 0.0 | 0.0 | 0.00 | 0.00 | 0.00 | 92 | 1021.5 | |
| 20260830025027 | 19 | 0.0 | 0.0 | 0.00 | 0.00 | 0.00 | 91 | 1021.4 | |
| 20260830024027 | 19 | 0.0 | 0.0 | 0.00 | 0.00 | 0.00 | 91 | 1021.4 | |
| 20260830023027 | 19 | 0.0 | 0.0 | 0.00 | 0.00 | 0.00 | 91 | 1021.5 | |
| 20260830022027 | 20 | 0.0 | 0.0 | 0.00 | 0.00 | 0.00 | 90 | 1021.4 | |
| 20260830021027 | 20 | 0.0 | 0.0 | 0.00 | 0.00 | 0.00 | 90 | 1021.4 | |
| 20260830020127 | 20 | 0.0 | 0.0 | 0.00 | 0.00 | 0.00 | 89 | 1021.3 | |
| 20260830015027 | 20 | 0.0 | 0.0 | 0.00 | 0.00 | 0.00 | 89 | 1021.1 | |
| 20260830014027 | 20 | 0.0 | 0.0 | 0.00 | 0.00 | 0.00 | 88 | 1021.0 | |
| 20260830013047 | 20 | 0.0 | 0.0 | 0.00 | 0.00 | 0.00 | 87 | 1020.9 | |
| 20260830012026 | 20 | 0.0 | 0.0 | 0.00 | 0.00 | 0.00 | 87 | 1020.8 | |
| 20260830011027 | 20 | 0.0 | 0.0 | 0.00 | 0.00 | 0.00 | 87 | 1020.8 | |
| 20260830010027 | 21 | 0.0 | 0.0 | 0.00 | 0.00 | 0.00 | 87 | 1020.5 | |
| 20260830005026 | 21 | 0.0 | 0.0 | 0.00 | 0.00 | 0.00 | 86 | 1020.5 | |
| 20260830004026 | 21 | 0.0 | 0.0 | 0.00 | 0.00 | 0.00 | 85 | 1020.4 | |
| 20260830003027 | 21 | 0.0 | 0.0 | 0.00 | 0.00 | 0.00 | 85 | 1020.4 |